This is the latest recevied weather packets stored in our database for station/object KC9GSD. If no packets are shown the sender has not sent any weather packets the latest 10 day(s).
| Time | Temp. | Humidity | Pressure | Rain* | Wind** | Luminosity | Snow |
|---|---|---|---|---|---|---|---|
| 1777821878 | 15° C | 63% | 1021.6 hPa | 0 mm | - | 671 W/m² | - |
| 1777821576 | 15° C | 55% | 1021.6 hPa | 0 mm | - | 653 W/m² | - |
| 1777821274 | 15° C | 60% | 1021.8 hPa | 0 mm | - | 636 W/m² | - |
| 1777820970 | 15° C | 52% | 1021.5 hPa | 0 mm | - | 615 W/m² | - |
| 1777820667 | 14.44° C | 59% | 1021.4 hPa | 0 mm | - | 604 W/m² | - |
| 1777820363 | 15° C | 54% | 1021.7 hPa | 0 mm | - | 591 W/m² | - |
| 1777820061 | 14.44° C | 60% | 1021.7 hPa | 0 mm | - | 579 W/m² | - |
| 1777819757 | 15° C | 57% | 1021.8 hPa | 0 mm | - | 562 W/m² | - |
| 1777819456 | 13.89° C | 64% | 1021.7 hPa | 0 mm | - | 559 W/m² | - |
| 1777819153 | 13.33° C | 61% | 1021.8 hPa | 0 mm | - | 536 W/m² | - |
| 1777818850 | 14.44° C | 64% | 1021.8 hPa | 0 mm | - | 514 W/m² | - |
| 1777818546 | 13.89° C | 67% | 1021.7 hPa | 0 mm | - | 505 W/m² | - |
| 1777818244 | 13.33° C | 64% | 1021.6 hPa | 0 mm | - | 485 W/m² | - |
| 1777817939 | 12.78° C | 69% | 1021.6 hPa | 0 mm | - | 473 W/m² | - |
| 1777817637 | 13.89° C | 65% | 1021.6 hPa | 0 mm | - | 458 W/m² | - |
| 1777817333 | 13.33° C | 66% | 1021.6 hPa | 0 mm | - | 441 W/m² | - |
| 1777817031 | 13.33° C | 70% | 1021.5 hPa | 0 mm | - | 424 W/m² | - |
| 1777816726 | 13.33° C | 63% | 1021.6 hPa | 0 mm | - | 406 W/m² | - |
| 1777816424 | 13.33° C | 66% | 1021.4 hPa | 0 mm | - | 390 W/m² | - |
| 1777816122 | 12.78° C | 69% | 1021.3 hPa | 0 mm | - | 373 W/m² | - |
| 1777815819 | 12.22° C | 67% | 1021.2 hPa | 0 mm | - | 357 W/m² | - |
| 1777815516 | 12.22° C | 67% | 1021.5 hPa | 0 mm | - | 323 W/m² | - |
| 1777815214 | 12.22° C | 71% | 1021.4 hPa | 0 mm | - | 277 W/m² | - |
| 1777814910 | 12.22° C | 68% | 1021.4 hPa | 0 mm | - | 234 W/m² | - |
| 1777814606 | 11.67° C | 69% | 1021.3 hPa | 0 mm | - | 202 W/m² | - |
* Rain latest hour (hover to see other rain measurements)
** Current wind speed in m/s (hover to see current wind gust speed)